Location: Huppendorf
(49.9333°N, 11.1500°E)
Time: 03:24:38
(UTC+00:00)

Okean 1 - Pass Details

Date: 27 February 2020
Orbit: 538 x 556 km, 82.5° (Epoch: 02 April)

Event Time Altitude Azimuth Distance (km) Brightness Sun altitude
Rises 18:40:38 0° 345° (NNW) 2,730 7.2 -18.0°
Reaches altitude 10° 18:42:52 10° 339° (NNW) 1,828 6.4 -18.3°
Maximum altitude 18:46:43 46° 266° (W) 737 4.4 -19.0°
Drops below altitude 10° 18:50:31 10° 193° (SSW) 1,803 6.0 -19.6°
Sets 18:52:42 0° 187° (S) 2,687 6.8 -19.9°
